www.pogodaiklimat.ru

Погода и климат >> Архив погоды >> Норвегия >> Obrestad Fyr


ПОГОДА в Obrestad Fyr

  • Прогноз погоды в Obrestad Fyr
  • Монитор погоды в Obrestad Fyr
  • Климат города

АРХИВ ПОГОДЫ в Obrestad Fyr

Время (UTC), дата Ветер
(напр.,м/с)
 
Видим.   Явления Облачность Т
(С)
Тd
(С)
f
(%)
Тe
(С)
Тes
(С)
Комфортность P
(гПа)
Po
(гПа)
Тmin
(С)
Tmax
(С)
R
(мм)
R24
(мм)
S
(см)
02 16.07 ЮВ 5
{8}
н/о н/о +12.7 +11 +11 1016.0 1013.0
01 16.07 Ю 7
{8}
н/о н/о +12.7 +11 +11 1016.3 1013.2
03 16.07 Ю 5
{7}
н/о н/о +12.5 +11 +11 1016.1 1013.0
04 16.07 ЮВ 7 н/о н/о +11.6 1015.9 1012.9
05 16.07 Ю 7
{9}
н/о н/о +12.3 +10 +10 1015.9 1012.9
06 16.07 Ю 9
{10}
н/о н/о +13.3 +11 +11 1016.0 1013.0 +11.5 +13.3
08 16.07 Ю 8
{10}
н/о н/о +14.2 +12 +12 1016.0 1013.0
07 16.07 Ю 9
{11}
н/о н/о +13.5 +11 +11 1016.0 1013.0
09 16.07 Ю 9
{11}
н/о н/о +14.1 +14.0 99 +11 +11 1016.2 1013.2
10 16.07 Ю 7
{10}
н/о н/о +14.5 +14.1 97 +12 +12 1016.4 1013.3
11 16.07 Ю 8
{10}
н/о н/о +16.0 +14.5 91 +14 +14 1016.6 1013.6
12 16.07 Ю 8
{11}
н/о н/о +16.2 +14.6 90 +15 +15 1016.7 1013.7
14 16.07 Ю 5
{8}
н/о н/о +16.2 +14.1 87 +15 +15 1016.4 1013.4
13 16.07 Ю 7
{9}
н/о н/о +16.7 +14.2 85 +15 +15 1016.7 1013.7
15 16.07 Ю 5
{7}
н/о н/о +16.6 +14.4 87 +16 +16 1016.1 1013.1
16 16.07 Ю 4
{6}
н/о н/о +16.7 +14.4 86 +16 +16 1015.8 1012.8
17 16.07 Ю 4
{6}
н/о н/о +16.8 +13.9 83 +16 +16 1015.7 1012.7
18 16.07 н/о +16.6 +12.8 78 1015.9 1012.9 +13.1 +17.6
20 16.07 Ю 2
{3}
н/о н/о +16.5 +12.3 76 +17 +17 1015.9 1012.9
19 16.07 Ю 2
{4}
н/о н/о +16.8 +12.6 76 +17 +17 1015.7 1012.7
21 16.07 ЮВ 3 н/о н/о +15.7 +11.2 75 +15 +15 1015.7 1012.7
22 16.07 В 3 н/о н/о +14.7 +11.7 82 +14 +14 1015.5 1012.5
23 16.07 В 4 н/о н/о +13.1 +11.1 88 +11 +11 1015.3 1012.3
00 17.07 В 4
{5}
н/о н/о +13.3 +10.9 85 +12 +12 1015.1 1012.1
02 17.07 ЮЗ 2
{3}
н/о н/о +13.9 +11.7 87 +13 +13 1014.6 1011.6
01 17.07 З 1
{3}
н/о н/о +13.5 +11.9 90 +14 +14 1014.9 1011.8
03 17.07 ЮВ 2
{3}
н/о н/о +13.4 +11.6 89 +13 +13 1014.6 1011.6
04 17.07 ЮВ 4
{5}
н/о н/о +14.7 +11.6 82 +13 +13 1014.5 1011.5
05 17.07 ЮВ 2
{4}
н/о н/о +14.2 +11.5 84 +14 +14 1014.6 1011.6
06 17.07 ЮВ 2
{5}
н/о н/о +15.6 +12.5 82 +15 +15 1014.6 1011.6 +12.7 +17.7
08 17.07 Ю 2
{3}
н/о н/о +17.6 +12.3 71 +18 +18 1014.4 1011.4
07 17.07 ЮВ 2
{3}
н/о н/о +17.5 +13.3 76 +18 +18 1014.5 1011.5
09 17.07 ЮЗ 2
{3}
н/о н/о +18.2 +12.4 69 +19 +19 1014.3 1011.4
10 17.07 Ю 2
{3}
н/о н/о +19.3 +11.5 61 +21 +21 комфорт 1014.0 1011.0
11 17.07 ЮЗ 2
{3}
н/о н/о +19.4 +12.1 63 +21 +21 комфорт 1013.9 1010.9
12 17.07 ЮЗ 2
{3}
н/о н/о +20.0 +13.4 66 +23 +23 комфорт 1013.7 1010.8
14 17.07 Ю 5
{7}
н/о н/о +18.0 +14.1 78 +18 +18 1013.3 1010.3
13 17.07 Ю 2
{3}
н/о н/о +19.6 +14.7 73 +22 +22 комфорт 1013.5 1010.5
15 17.07 Ю 5
{7}
н/о н/о +19.2 +12.5 65 +20 +20 1013.0 1010.0
16 17.07 Ю 6
{8}
н/о н/о +18.6 +13.8 74 +19 +19 1013.2 1010.2
17 17.07 Ю 3
{7}
н/о н/о +17.9 +14.7 82 +18 +18 1013.4 1010.4
18 17.07 ЮЗ 1
{8}
н/о н/о +18.8 +14.6 77 +21 +21 комфорт 1013.3 1010.3 +15.8 +20.5
20 17.07 ЮВ 3
{3}
н/о н/о +16.9 +13.8 82 +17 +17 1013.2 1010.2
21 17.07 В 1
{3}
н/о н/о +15.9 +14.0 88 +17 +17 1013.2 1010.2
22 17.07 ЮВ 4
{4}
н/о н/о +16.1 +13.7 86 +15 +15 1013.3 1010.3
23 17.07 В 3
{5}
н/о н/о +14.6 +12.3 86 +14 +14 1013.1 1010.0
00 18.07 ЮВ 2
{5}
н/о н/о +15.6 +12.5 82 +15 +15 1013.1 1010.1
01 18.07 Ю 3
{4}
н/о н/о +15.0 +12.5 85 +14 +14 1012.9 1009.9
02 18.07 ЮВ 4
{5}
н/о н/о +15.2 +11.8 80 +14 +14 1012.9 1009.9
03 18.07 ЮВ 4
{5}
н/о н/о +16.1 +11.2 73 +15 +15 1012.9 1009.9
04 18.07 В 3 н/о н/о +13.8 +10.6 81 +13 +13 1012.9 1009.8
05 18.07 З 2
{6}
н/о н/о +14.9 +13.0 88 +15 +15 1013.2 1010.2
06 18.07 З 1
{7}
н/о н/о +16.2 +13.5 84 +17 +17 1013.7 1010.7 +13.5 +18.9
07 18.07 Ю 2
{3}
н/о н/о +17.1 +14.1 83 +17 +17 1014.1 1011.1
08 18.07 Ю 2
{3}
н/о н/о +16.9 +14.9 88 +17 +17 1014.5 1011.5
09 18.07 СЗ 4
{5}
н/о н/о +15.8 +15.1 96 +15 +15 1015.1 1012.1
10 18.07 СЗ 5
{6}
н/о н/о +16.2 +15.3 94 +15 +15 1015.2 1012.2
11 18.07 СЗ 7
{7}
н/о н/о +16.0 +14.6 91 +14 +14 1015.7 1012.7
12 18.07 СЗ 7
{8}
н/о н/о +15.9 +14.2 90 +14 +14 1016.2 1013.2
13 18.07 СЗ 6
{7}
н/о н/о +16.0 +14.3 90 +15 +15 1016.7 1013.7
14 18.07 СЗ 7
{8}
н/о н/о +16.1 +14.2 88 +15 +15 1017.1 1014.1
15 18.07 СЗ 6
{8}
н/о н/о +16.3 +14.0 86 +15 +15 1017.3 1014.3
16 18.07 СЗ 6
{7}
н/о н/о +16.0 +13.8 87 +15 +15 1017.6 1014.6
17 18.07 СЗ 5
{7}
н/о н/о +15.9 +13.7 87 +15 +15 1017.7 1014.7
18 18.07 СЗ 5
{8}
н/о н/о +15.7 +13.7 88 +14 +14 1018.0 1015.0 +15.6 +17.9
19 18.07 С 5
{6}
н/о н/о +15.3 +13.3 88 +14 +14 1018.1 1015.1
20 18.07 С 5
{6}
н/о н/о +14.5 +12.6 88 +13 +13 1018.3 1015.3
21 18.07 С 4
{6}
н/о н/о +13.6 +11.9 89 +12 +12 1018.4 1015.3
22 18.07 С 4
{6}
н/о н/о +13.0 +11.6 91 +11 +11 1018.6 1015.6
23 18.07 С 4
{5}
н/о н/о +12.1 +11.2 94 +10 +10 1018.8 1015.7
00 19.07 С 5
{7}
н/о н/о +13.6 +12.0 90 +12 +12 1018.6 1015.6
01 19.07 С 6
{7}
н/о н/о +13.4 +12.2 92 +11 +11 1018.7 1015.7
02 19.07 С 4
{6}
н/о н/о +11.5 +10.9 96 +9 +9 1018.7 1015.7
03 19.07 С 4
{6}
н/о н/о +12.0 +11.5 97 +10 +10 1018.7 1015.6
04 19.07 С 5
{6}
н/о н/о +12.5 +11.8 95 +10 +10 1018.7 1015.6
05 19.07 С 6
{8}
н/о н/о +13.2 +12.3 94 +11 +11 1018.8 1015.7
06 19.07 С 7
{9}
н/о н/о +13.4 +12.3 93 +11 +11 1019.0 1015.9 +10.5 +15.8
07 19.07 С 8
{10}
н/о н/о +13.2 +12.0 92 +10 +10 1019.0 1015.9
08 19.07 С 8
{11}
н/о н/о +13.8 +11.7 87 +11 +11 1018.9 1015.8
09 19.07 С 10
{11}
н/о н/о +14.0 +11.5 85 +11 +11 1018.6 1015.5
10 19.07 С 10
{13}
н/о н/о +14.2 +11.1 82 +11 +11 1018.5 1015.5
11 19.07 СЗ 10
{12}
н/о н/о +14.0 +10.9 82 +11 +11 1018.5 1015.5
12 19.07 СЗ 11
{13}
н/о н/о +13.3 +10.6 84 +10 +10 1018.3 1015.3
13 19.07 СЗ 10
{12}
н/о н/о +13.4 +10.8 84 +10 +10 1018.1 1015.0
14 19.07 СЗ 9
{12}
н/о н/о +13.8 +11.2 84 +11 +11 1018.1 1015.1
15 19.07 СЗ 9
{11}
н/о н/о +13.9 +11.2 84 +11 +11 1018.0 1015.0
16 19.07 С 9
{11}
н/о н/о +14.2 +11.3 83 +12 +12 1017.6 1014.6
17 19.07 С 8
{11}
н/о н/о +13.9 +11.2 84 +11 +11 1017.5 1014.4
18 19.07 СЗ 8
{12}
н/о н/о +13.2 +10.8 85 +10 +10 1017.5 1014.4 +13.1 +15.3
19 19.07 С 7
{10}
н/о н/о +13.0 +10.8 86 +10 +10 1017.3 1014.3
20 19.07 С 6
{9}
н/о н/о +12.2 +10.6 90 +9 +9 1017.3 1014.3
21 19.07 С 5
{7}
н/о н/о +11.6 +10.4 92 +9 +9 1017.2 1014.1
22 19.07 С 5
{7}
н/о н/о +11.5 +10.5 94 +9 +9 1016.9 1013.8
23 19.07 С 5
{7}
н/о н/о +11.7 +10.5 92 +9 +9 1016.6 1013.6
00 20.07 С 4
{10}
н/о н/о +10.6 +10.0 96 +8 +8 1016.5 1013.4
01 20.07 СВ 3
{5}
н/о н/о +9.7 +9.4 98 +7 +7 1016.2 1013.1
02 20.07 С 3
{4}
н/о н/о +10.0 +9.9 99 +8 +8 1015.9 1012.8
03 20.07 СВ 3
{3}
н/о н/о +9.3 +8 +8 1015.5 1012.4
04 20.07 СВ 2
{4}
н/о н/о +8.9 +8 +8 1015.2 1012.1
05 20.07 В 4
{4}
н/о н/о +10.2 +10.1 99 +7 +7 1014.6 1011.6
06 20.07 н/о +11.4 +33 +31 очень
душно
1014.9 1011.9 +7.6 +13.5 0.2
07 20.07 СЗ 2
{2}
н/о н/о +12.4 +10.9 91 +11 +11 1014.7 1011.7
08 20.07 СЗ 2
{2}
н/о н/о +13.8 +12.0 89 +13 +13 1014.7 1011.7
09 20.07 СЗ 1
{2}
н/о н/о +14.5 +11.1 80 +15 +15 1014.5 1011.5
10 20.07 З 2
{3}
н/о н/о +15.3 +11.2 77 +15 +15 1014.3 1011.3
11 20.07 ЮЗ 2
{3}
н/о н/о +15.9 +11.8 77 +16 +16 1014.2 1011.2
12 20.07 Ю 2
{4}
н/о н/о +16.2 +9.9 66 +16 +16 1014.0 1011.0
13 20.07 Ю 3
{5}
н/о н/о +16.6 +10.7 68 +16 +16 1013.7 1010.7
14 20.07 Ю 4
{6}
н/о н/о +16.1 +12.3 78 +15 +15 1013.6 1010.6
15 20.07 Ю 5
{7}
н/о н/о +16.3 +14.0 86 +15 +15 1013.3 1010.3
16 20.07 Ю 6
{7}
н/о н/о +15.8 +14.1 90 +14 +14 1013.0 1010.0
17 20.07 Ю 5
{7}
н/о н/о +15.6 +14.2 91 +14 +14 1012.9 1009.9
18 20.07 Ю 5
{7}
н/о н/о +15.3 +14.2 93 +14 +14 1012.9 1009.9 +11.3 +17.2
19 20.07 ЮВ 5
{6}
н/о н/о +14.9 +14.1 95 +13 +13 1012.9 1009.9
20 20.07 Ю 3
{6}
н/о н/о +14.7 +14.1 96 +14 +14 1012.9 1009.9
21 20.07 Ю 3
{5}
н/о н/о +14.3 +13.9 97 +13 +13 1013.0 1010.0
22 20.07 ЮЗ 3
{4}
н/о н/о +14.1 +13.7 97 +13 +13 1012.8 1009.8
23 20.07 ЮЗ 3
{4}
н/о н/о +14.0 +13.5 97 +13 +13 1012.5 1009.4
00 21.07 ЮЗ 3
{6}
н/о н/о +14.1 +13.7 97 +13 +13 1012.4 1009.4
01 21.07 ЮЗ 2
{3}
н/о н/о +13.9 +13.5 97 +13 +13 1012.5 1009.4
02 21.07 ЮЗ 2
{3}
н/о н/о +14.1 +13.8 98 +13 +13 1012.6 1009.6
03 21.07 ЮЗ 1
{3}
н/о н/о +13.9 +13.7 99 +14 +14 1012.6 1009.5
04 21.07 Ю 2 н/о н/о +13.5 +13.4 99 +13 +13 1012.1 1009.1
05 21.07 Ю 2
{3}
н/о н/о +14.1 +13.8 98 +13 +13 1012.0 1008.9
06 21.07 Ю 3
{4}
н/о н/о +14.2 +13.6 96 +13 +13 1012.1 1009.1 +13.0 +15.4
07 21.07 Ю 2
{3}
н/о н/о +15.3 +14.5 95 +15 +15 1012.1 1009.1
08 21.07 Ю 3
{4}
н/о н/о +15.8 +13.8 88 +15 +15 1011.9 1008.9
09 21.07 Ю 3
{4}
н/о н/о +15.5 +13.5 88 +15 +15 1011.9 1008.9
10 21.07 Ю 3
{4}
н/о н/о +15.3 +13.7 90 +15 +15 1011.8 1008.8
11 21.07 Ю 2
{4}
н/о н/о +14.9 +13.9 94 +15 +15 1011.9 1008.9
12 21.07 Ю 2
{4}
н/о н/о +14.2 +13.3 94 +14 +14 1012.0 1008.9
13 21.07 ЮВ 3
{6}
н/о н/о +14.0 +13.8 99 +13 +13 1012.0 1008.9
14 21.07 ЮЗ 2
{3}
н/о н/о +15.0 +14.8 99 +15 +15 1011.8 1008.8
15 21.07 З 3
{4}
н/о н/о +14.5 +13.9 96 +13 +13 1011.6 1008.6
16 21.07 СЗ 5
{7}
н/о н/о +14.4 +13.5 94 +13 +13 1011.4 1008.3
17 21.07 СЗ 5
{6}
н/о н/о +14.1 +13.4 96 +12 +12 1011.4 1008.3
18 21.07 СЗ 7
{8}
н/о н/о +13.8 +13.3 97 +11 +11 1011.4 1008.3 +13.8 +16.7
19 21.07 СЗ 4
{7}
н/о н/о +13.5 +12.8 96 +12 +12 1011.4 1008.3
20 21.07 СЗ 7
{8}
н/о н/о +13.8 +12.5 92 +11 +11 1011.5 1008.5
21 21.07 СЗ 5
{7}
н/о н/о +13.6 +12.2 91 +12 +12 1011.6 1008.5
22 21.07 СЗ 3
{6}
н/о н/о +13.2 +12.1 93 +12 +12 1011.5 1008.4
23 21.07 СЗ 2
{4}
н/о н/о +12.8 +11.9 94 +12 +12 1011.3 1008.3
00 22.07 СЗ 2
{8}
н/о н/о +12.8 +11.3 91 +12 +12 1011.1 1008.1
01 22.07 СЗ 2
{4}
н/о н/о +13.6 +12.6 94 +13 +13 1010.9 1007.9
02 22.07 З 2
{4}
н/о н/о +13.5 +12.8 96 +13 +13 1010.7 1007.7
03 22.07 З 2
{3}
н/о н/о +13.5 +13.0 97 +13 +13 1010.6 1007.6
04 22.07 З 3 н/о н/о +13.6 +13.3 98 +12 +12 1010.5 1007.5
05 22.07 З 3
{3}
н/о н/о +13.8 +13.3 97 +13 +13 1010.5 1007.4
06 22.07 СЗ 2
{4}
н/о н/о +14.4 +11.5 83 +14 +14 1010.6 1007.6 +12.5 +14.4
07 22.07 СЗ 1
{2}
н/о н/о +15.3 +10.5 73 +16 +16 1010.7 1007.7
08 22.07 ЮЗ 2
{3}
н/о н/о +15.6 +12.8 83 +15 +15 1010.9 1007.9
09 22.07 З 3
{3}
н/о н/о +16.0 +12.9 82 +16 +16 1011.0 1008.0
10 22.07 З 2
{3}
н/о н/о +15.9 +13.0 83 +16 +16 1011.1 1008.1
11 22.07 З 2
{3}
н/о н/о +16.4 +12.7 79 +17 +17 1011.3 1008.3
12 22.07 ЮЗ 1
{3}
н/о н/о +15.6 +12.5 82 +16 +16 1011.3 1008.3
13 22.07 Ю 2
{3}
н/о н/о +15.8 +12.9 83 +16 +16 1011.6 1008.6
14 22.07 Ю 2
{3}
н/о н/о +15.5 +13.1 86 +15 +15 1011.6 1008.6
15 22.07 ЮВ 3
{4}
н/о н/о +15.5 +12.2 81 +15 +15 1011.5 1008.5
16 22.07 Ю 3
{4}
н/о н/о +15.5 +11.9 79 +15 +15 1011.4 1008.4
17 22.07 Ю 3
{5}
н/о н/о +15.2 +13.0 87 +14 +14 1011.4 1008.4
18 22.07 Ю 3
{5}
н/о н/о +14.5 +13.9 96 +13 +13 1011.5 1008.5 +14.2 +17.0
19 22.07 Ю 2
{4}
н/о н/о +14.8 +14.0 95 +14 +14 1011.9 1008.9
20 22.07 З 3
{4}
н/о н/о +14.8 +14.6 99 +14 +14 1012.2 1009.2
21 22.07 СЗ 3
{5}
н/о н/о +14.5 +14.4 99 +13 +13 1012.7 1009.6
22 22.07 СЗ 2
{4}
н/о н/о +15.0 +15 +15 1013.0 1010.0
23 22.07 СЗ 2
{3}
н/о н/о +14.8 +14.8 100 +14 +14 1013.1 1010.1
00 23.07 СЗ 2
{5}
н/о н/о +14.7 +14.6 99 +14 +14 1013.3 1010.3

 

Местоположение метеостанции Obrestad Fyr (Норвегия): широта 58.65 долгота 5.56 высота над уровнем моря 24 м.

В архиве по умолчанию представлена погода в Obrestad Fyr за последнюю неделю. Архивные данные за месяц целиком и за предыдущие месяцы, начиная с января 2011 года, Вы можете получить, выбрав интересующий диапазон дат из раскрывающегося списка и нажав кнопку "Ввод!".


*Определитесь, кто Вы:
робот инопланетянин человек

Внимание! Время в таблицах - всемирное. Для получения местного времени необходимо прибавить поправку, которая в Obrestad Fyr равна 1 ч.

Смотрите также архив погоды в соседних городах и на ближайших метеорологических станциях:

Погода в Saerheim (Норвегия) (13 км)
Погода в Stavanger Lufthavn (Норвегия) (26 км)
Погода в Eigeroya (Норвегия) (29 км)
Погода в Stavanger (Норвегия) (36 км)
Погода в Kvitsoy (Норвегия) (47 км)
Погода в Liarvatn (Норвегия) (55 км)
Погода в Eik-Hove (Норвегия) (57 км)
Погода в Fister-Sigmundstad (Норвегия) (64 км)
Погода в Haugesund Lufthavn (Норвегия) (81 км)
Погода в Utsira Fyr (Норвегия) (83 км)

Пояснения к столбцам:

Ветер - указаны скорость ветра в м/с - средняя за 10 мин, порывы в срок и между сроками (в фигурных скобках) и направление, откуда дует ветер: С - северный, СВ - северо-восточный, В - восточный, ЮВ - юго-восточный, Ю - южный, ЮЗ - юго-западный, З - западный, СЗ - северо-западный.
Видимость - горизонтальная дальность видимости в метрах или километрах. При видимости от 1 до 10 км при отсутствии осадков обычно наблюдается дымка, при ухудшении видимости до 1 км и менее - туман. В сухую погоду видимость может ухудшаться дымом, пылью или мглою.
Явления - указаны атмосферные явления, наблюдавшиеся в срок или в последний час перед сроком; фигурными скобками обозначены явления, наблюдавшиеся между сроками (за 1-3 часа до срока); квадратными скобками обозначены град или гололедные отложения с указанием их диаметра в мм.
Облачность - указаны через наклонную черту общая и нижняя облачность в баллах и высота нижней границы облаков в метрах; квадратными скобками обозначены формы облаков: Ci - перистые, Cs - перисто-слоистые, Cc - перисто-кучевые, Ac - высококучевые, As - высокослоистые, Sc - слоисто-кучевые, Ns - слоисто-дождевые, Cu - кучевые, Cb - кучево-дождевые. Подробнее классификацию облаков см. в Атласе облаков (PDF).
T - Температура воздуха - температура, измеренная на высоте 2 м над землей.
Td - Температура точки росы - температура, при понижении до которой содержащийся в воздухе водяной пар достигнет насыщения.
f - Относительная влажность воздуха - влажноcть воздуха, измеренная на высоте 2 м над землей.
Te - Эффективная температура - температура, которую ощущает одетый по сезону человек в тени. Характеристика душности погоды. При расчете учитывается влияние влажности воздуха и скорости ветра на теплоощущения человека.
Tes - Эффективная температура на солнце - температура, которую ощущает человек, с поправкой на солнечный нагрев. Характеристика знойности погоды. Зависит от высоты солнца над горизонтом, облачности и скорости ветра. Ночью, в пасмурную погоду, а также при ветре 12 м/с и более поправка равна нулю.
P - Атмосферное давление - приведенное к уровню моря атмосферное давление.
Po - Атмосферное давление - измеренное на уровне метеостанции атмосферное давление.
Tmin - Минимальная температура - минимум температуры воздуха на высоте 2 м над землей.
Tmax - Максимальная температура - максимум температуры воздуха на высоте 2 м над землей.
R - Количество осадков - Количество выпавших осадков за период времени, мм. При наведении курсора мыши на число - период времени, за который выпало указанное количество осадков.
R24 - Количество осадков - Количество выпавших осадков за 24 часа, мм.
S - Снежный покров - Высота снежного покрова, см. При наведении курсора мыши на число - состояние снежного покрова и степень покрытия местности в баллах.